EW8288 Weather Reports


time (UTC)temp
C
wind
direction
speed
KPH
gust
KPH
rain 1hr
cm
rain 24hr
cm
rain mn
cm
humidity
%
barometer
mb
20260507050225 13 221 1.6 12.9 0.00 0.00 0.00 76 1009.8
20260507045226 13 217 1.6 9.7 0.00 0.00 0.00 76 1009.8
20260507044225 13 219 0.0 11.3 0.00 0.00 0.00 77 1009.5
20260507043225 12 217 4.8 9.7 0.00 0.00 0.00 78 1009.5
20260507042441 12 219 0.0 4.8 0.00 0.00 0.00 78 1009.1
20260507041226 12 219 0.0 6.4 0.00 0.00 0.00 78 1009.1
20260507040225 12 219 3.2 4.8 0.00 0.00 0.00 78 1009.1
20260507035227 12 219 0.0 3.2 0.00 0.00 0.00 78 1009.1
20260507034227 13 219 0.0 4.8 0.00 0.00 0.00 77 1008.8
20260507033227 13 219 0.0 6.4 0.00 0.00 0.00 76 1008.8
20260507032228 13 218 1.6 8.0 0.00 0.00 0.00 76 1008.8
20260507031442 13 219 3.2 8.0 0.00 0.00 0.00 76 1008.8
20260507030226 13 219 4.8 8.0 0.00 0.00 0.00 75 1008.5
20260507025225 13 219 3.2 8.0 0.00 0.00 0.00 75 1008.5
20260507024439 13 219 0.0 6.4 0.00 0.00 0.00 75 1008.5
20260507023226 14 219 0.0 4.8 0.00 0.00 0.00 75 1008.5
20260507022224 14 219 3.2 8.0 0.00 0.00 0.00 76 1008.5
20260507021440 14 219 0.0 3.2 0.00 0.00 0.00 76 1008.5
20260507020225 14 219 4.8 4.8 0.00 0.00 0.00 76 1008.1
20260507015226 14 219 0.0 0.0 0.00 0.00 0.00 76 1008.1
20260507014225 14 219 0.0 0.0 0.00 0.00 0.00 76 1008.1
20260507013224 14 219 0.0 4.8 0.00 0.00 0.00 76 1008.1
20260507012226 14 219 0.0 1.6 0.00 0.00 0.00 75 1007.8
20260507010224 15 219 0.0 6.4 0.00 0.00 0.00 73 1007.8
20260507005225 15 221 0.0 8.0 0.00 0.00 0.00 72 1007.8
20260507004227 15 205 0.0 3.2 0.00 0.00 0.00 72 1007.5
20260507003230 15 205 0.0 0.0 0.00 0.00 0.00 71 1007.5
20260507002440 15 205 0.0 0.0 0.00 0.00 0.00 70 1007.1
20260507001224 15 205 0.0 0.0 0.00 0.00 0.00 68 1007.1
20260507000226 16 205 0.0 3.2 0.00 0.00 0.00 66 1007.1
20260506235225 16 205 0.0 6.4 0.00 0.00 0.00 65 1007.1
20260506234226 16 205 4.8 8.0 0.00 0.00 0.00 65 1007.1
20260506233440 16 204 0.0 4.8 0.00 0.00 0.00 66 1006.8
20260506232225 16 204 0.0 0.0 0.00 0.00 0.00 65 1006.4
20260506231224 16 204 0.0 4.8 0.00 0.00 0.00 64 1006.4
20260506230225 17 204 0.0 8.0 0.00 0.00 0.00 63 1006.4
20260506225440 17 204 1.6 8.0 0.00 0.00 0.00 63 1006.1
20260506224225 16 360 0.0 6.4 0.00 0.00 0.00 65 1005.8
20260506223225 17 247 0.0 1.6 0.00 0.00 0.00 64 1005.8
20260506222226 17 247 0.0 4.8 0.00 0.00 0.00 64 1005.4
20260506221225 17 247 0.0 1.6 0.00 0.00 0.00 64 1005.4
20260506220224 17 247 0.0 0.0 0.00 0.00 0.00 63 1005.1
20260506215441 17 247 0.0 1.6 0.00 0.00 0.00 62 1004.7
20260506214226 17 247 1.6 12.9 0.00 0.00 0.00 60 1004.7
20260506213224 17 217 0.0 6.4 0.00 0.00 0.00 62 1004.1
20260506212225 17 187 0.0 3.2 0.00 0.00 0.00 62 1003.7
20260506211225 17 187 0.0 6.4 0.00 0.00 0.00 61 1003.7
20260506210225 18 186 0.0 1.6 0.00 0.00 0.00 60 1003.7
20260506205228 18 186 0.0 6.4 0.00 0.00 0.00 59 1003.7
20260506204226 18 200 1.6 8.0 0.00 0.00 0.00 59 1003.4
20260506203224 18 200 1.6 8.0 0.00 0.00 0.00 59 1003.4
20260506202224 18 198 0.0 6.4 0.00 0.00 0.00 58 1003.4
20260506201438 18 198 0.0 8.0 0.00 0.00 0.00 58 1003.0
20260506200224 18 206 0.0 8.0 0.00 0.00 0.00 57 1003.4
20260506195440 19 198 0.0 6.4 0.00 0.00 0.00 56 1003.0
20260506194226 19 196 0.0 8.0 0.00 0.00 0.00 55 1003.0
20260506193227 20 203 0.0 8.0 0.00 0.00 0.00 54 1002.7
20260506192224 20 196 0.0 9.7 0.00 0.00 0.00 54 1002.7
20260506191440 20 209 0.0 4.8 0.00 0.00 0.00 53 1002.4
20260506190226 20 209 0.0 3.2 0.00 0.00 0.00 53 1002.4
20260506185224 20 211 0.0 3.2 0.00 0.00 0.00 53 1002.4
20260506184226 20 213 0.0 11.3 0.00 0.00 0.00 52 1002.4
20260506183228 21 209 0.0 8.0 0.00 0.00 0.00 51 1002.0
20260506182226 21 196 0.0 6.4 0.00 0.00 0.00 51 1001.7
20260506181226 21 192 0.0 9.7 0.00 0.00 0.00 50 1001.7
20260506180440 21 194 0.0 6.4 0.00 0.00 0.00 49 1001.7
20260506175442 21 193 0.0 4.8 0.00 0.00 0.00 49 1001.7
20260506174228 22 193 0.0 4.8 0.00 0.00 0.00 49 1001.7
20260506173229 22 170 0.0 9.7 0.00 0.00 0.00 48 1001.7
20260506172224 22 200 11.3 12.9 0.00 0.00 0.00 47 1001.7
20260506171225 22 179 4.8 14.5 0.00 0.00 0.00 47 1001.7
20260506170224 23 196 0.0 14.5 0.00 0.00 0.00 45 1001.7
20260506165226 23 203 4.8 8.0 0.00 0.00 0.00 45 1001.7
20260506164224 23 223 3.2 12.9 0.00 0.00 0.00 44 1001.7
20260506163227 23 178 1.6 16.1 0.00 0.00 0.00 43 1001.7
20260506162226 24 181 0.0 12.9 0.00 0.00 0.00 43 1002.0
20260506161227 24 236 0.0 12.9 0.00 0.00 0.00 41 1002.0
20260506160228 25 186 0.0 17.7 0.00 0.00 0.00 40 1002.0
20260506155226 25 249 0.0 19.3 0.00 0.00 0.00 39 1002.0
20260506154227 25 213 0.0 16.1 0.00 0.00 0.00 38 1002.0
20260506153228 25 198 0.0 11.3 0.00 0.00 0.00 39 1002.0
20260506152226 25 199 0.0 20.9 0.00 0.00 0.00 39 1002.0
20260506151227 26 210 0.0 20.9 0.00 0.00 0.00 38 1002.4
20260506150226 25 265 1.6 14.5 0.00 0.00 0.00 38 1002.4
20260506145441 26 241 3.2 12.9 0.00 0.00 0.00 38 1002.4
20260506144225 25 186 3.2 16.1 0.00 0.00 0.00 38 1002.7
20260506143226 25 185 0.0 25.7 0.00 0.00 0.00 38 1002.7
20260506142225 25 185 0.0 25.7 0.00 0.00 0.00 38 1002.7
20260506141234 25 236 0.0 11.3 0.00 0.00 0.00 38 1003.0
20260506140225 25 240 3.2 14.5 0.00 0.00 0.00 37 1003.0
20260506135224 25 161 0.0 8.0 0.00 0.00 0.00 38 1003.0
20260506134226 25 167 4.8 11.3 0.00 0.00 0.00 40 1003.0
20260506133224 25 217 0.0 16.1 0.00 0.00 0.00 40 1003.4
20260506132227 25 208 0.0 9.7 0.00 0.00 0.00 39 1003.7
20260506131227 25 211 0.0 4.8 0.00 0.00 0.00 40 1004.1
20260506130225 25 197 0.0 11.3 0.00 0.00 0.00 38 1004.1
20260506125225 26 259 0.0 19.3 0.00 0.00 0.00 38 1004.1
20260506124224 26 238 0.0 16.1 0.00 0.00 0.00 40 1004.4
20260506123227 26 236 0.0 9.7 0.00 0.00 0.00 40 1004.4
20260506122224 25 201 0.0 11.3 0.00 0.00 0.00 41 1004.4
20260506121226 24 177 0.0 17.7 0.00 0.00 0.00 42 1004.7
20260506120225 24 192 0.0 14.5 0.00 0.00 0.00 42 1004.7
20260506115441 24 202 3.2 16.1 0.00 0.00 0.00 42 1005.1
20260506114224 24 221 1.6 19.3 0.00 0.00 0.00 42 1005.1
20260506113225 25 195 0.0 19.3 0.00 0.00 0.00 42 1005.1
20260506112225 25 218 0.0 14.5 0.00 0.00 0.00 43 1005.1
20260506111226 25 238 1.6 14.5 0.00 0.00 0.00 44 1005.4
20260506110227 24 222 0.0 17.7 0.00 0.00 0.00 45 1005.4
20260506105442 24 245 11.3 16.1 0.00 0.00 0.00 44 1005.8
20260506104227 23 196 0.0 14.5 0.00 0.00 0.00 46 1005.8
20260506103226 23 194 0.0 4.8 0.00 0.00 0.00 46 1005.8
20260506102226 23 194 0.0 24.1 0.00 0.00 0.00 46 1006.1
20260506101225 23 207 0.0 11.3 0.00 0.00 0.00 48 1006.1
20260506100440 23 243 0.0 11.3 0.00 0.00 0.00 46 1006.4
20260506095227 22 192 0.0 12.9 0.00 0.00 0.00 47 1006.4
20260506094226 22 192 0.0 12.9 0.00 0.00 0.00 47 1006.4
20260506093224 22 231 6.4 8.0 0.00 0.00 0.00 49 1006.4
20260506092225 22 221 0.0 8.0 0.00 0.00 0.00 46 1006.4
20260506091226 22 224 0.0 8.0 0.00 0.00 0.00 47 1006.4
20260506090228 22 230 0.0 12.9 0.00 0.00 0.00 46 1006.4
20260506085226 21 228 0.0 6.4 0.00 0.00 0.00 48 1006.8
20260506084225 21 227 0.0 1.6 0.00 0.00 0.00 49 1006.8
20260506083228 21 227 0.0 1.6 0.00 0.00 0.00 50 1006.8
20260506082224 20 227 0.0 0.0 0.00 0.00 0.00 53 1006.8
20260506081225 20 229 0.0 8.0 0.00 0.00 0.00 53 1006.8
20260506080440 20 228 0.0 11.3 0.00 0.00 0.00 56 1006.8
20260506073227 19 229 3.2 9.7 0.00 0.00 0.00 59 1007.1
20260506072224 18 216 0.0 9.7 0.00 0.00 0.00 61 1007.5
20260506071228 18 220 0.0 8.0 0.00 0.00 0.00 64 1007.5
20260506070226 18 220 0.0 9.7 0.00 0.00 0.00 67 1007.5
20260506062225 17 203 3.2 8.0 0.00 0.00 0.00 72 1007.5
20260506061441 16 201 3.2 8.0 0.00 0.00 0.00 73 1007.5
20260506060226 16 201 1.6 4.8 0.00 0.00 0.00 74 1007.5
20260506051225 14 200 0.0 6.4 0.00 0.00 0.00 82 1007.5